{"data":{"norad_id":68039,"epoch":"2026-09-20T03:17:17.033280Z","epoch_age_seconds":90809,"freshness":"FRESH","line1":"1 68039U 26040AA  26263.13700270  .00021895  00000+0  67810-3 0  9996","line2":"2 68039  97.2846 210.4979 0002610  73.5151 286.6378 15.33463853 31260","mean_motion":15.33463853,"eccentricity":0.000261,"inclination_deg":97.2846,"raan_deg":210.4979,"arg_perigee_deg":73.5151,"mean_anomaly_deg":286.6378,"bstar":0.0006781,"rev_number":3126,"period_min":93.905050137494,"perigee_km":463.70089590369,"apogee_km":467.27326767439,"semimajor_km":6843.624081789,"source":"CELESTRAK","updated_at":"2026-09-20T09:00:43.746653Z"}}